Buckeye, AZ

8:46 PM MST on December 12, 2017 (GMT -0700)
Buckeye Municipal

Weather History for KBXK - February, 2014

Change the Weather History Date:

Monday, February 3, 2014

  Actual Average (KGYR) Record (KGYR)
Temperature  
Mean Temperature 49 °F -  
Max Temperature 59 °F 66 °F 78 °F (2000)
Min Temperature 39 °F 42 °F 32 °F (2002)
Degree Days  
Heating Degree Days 16    
Moisture  
Dew Point 21 °F    
Average Humidity 37    
Maximum Humidity 52    
Minimum Humidity 17    
Precipitation  
Precipitation 0.00 in - - ()
Sea Level Pressure  
Sea Level Pressure 29.88 in    
Wind  
Wind Speed 5 mph (NW)    
Max Wind Speed 8 mph    
Max Gust Speed -    
Visibility 10 miles    
Events      
Averages and records for this station are not official NWS values.
T = Trace of Precipitation, MM = Missing Value Source: NWS Daily Summary

Daily Weather History Graph

Daily Weather History Graph

Search for Another Location

Airport or City:

Trip Planner

Search our weather history database for the weather conditions in past years. The results will help you decide how hot, cold, wet, or windy it might be!

Date:

Astronomy

Feb. 03, 2014 Rise Set
Actual Time 7:25 AM MST 6:04 PM MST
Civil Twilight 6:59 AM MST 6:30 PM MST
Nautical Twilight 6:29 AM MST 6:59 PM MST
Astronomical Twilight 6:00 AM MST 7:29 PM MST
Moon 9:45 AM MST (2/3) 10:41 PM MST (2/3)
Length of Visible Light 11h 31m
Length of Day
10h 39m
Waxing Crescent, 20% of the Moon is Illuminated
Feb 3
Waxing Crescent
Feb 6
First Quarter
Feb 14
Full
Feb 22
Last Quarter
Mar 1
New

Hourly Weather History & Observations

Time (MST) Temp. Windchill Dew Point Humidity Pressure Visibility Wind Dir Wind Speed Gust Speed Precip Events Conditions
12:15 AM 46.4 °F 42.9 °F 24.8 °F 43% 29.95 in 10.0 mi North 6.9 mph - N/A   Overcast
12:35 AM 46.4 °F 43.5 °F 24.8 °F 43% 29.94 in 10.0 mi North 5.8 mph - N/A   Overcast
12:55 AM 46.4 °F 45.2 °F 23.0 °F 40% 29.94 in 10.0 mi NNE 3.5 mph - N/A   Overcast
1:15 AM 44.6 °F 42.2 °F 24.8 °F 46% 29.94 in 10.0 mi NNW 4.6 mph - N/A   Overcast
1:35 AM 44.6 °F 41.4 °F 23.0 °F 43% 29.93 in 10.0 mi NNE 5.8 mph - N/A   Overcast
1:55 AM 44.6 °F 40.7 °F 23.0 °F 43% 29.93 in 10.0 mi North 6.9 mph - N/A   Overcast
2:15 AM 42.8 °F 38.0 °F 23.0 °F 46% 29.93 in 10.0 mi North 8.1 mph - N/A   Overcast
2:35 AM 41.0 °F 35.8 °F 23.0 °F 49% 29.93 in 10.0 mi NNW 8.1 mph - N/A   Mostly Cloudy
2:55 AM 41.0 °F 38.0 °F 23.0 °F 49% 29.92 in 10.0 mi North 4.6 mph - N/A   Scattered Clouds
3:15 AM 41.0 °F 39.0 °F 23.0 °F 49% 29.92 in 10.0 mi NNE 3.5 mph - N/A   Overcast
3:35 AM 39.2 °F 37.0 °F 23.0 °F 52% 29.91 in 10.0 mi North 3.5 mph - N/A   Overcast
3:55 AM 41.0 °F 36.4 °F 23.0 °F 49% 29.90 in 10.0 mi North 6.9 mph - N/A   Overcast
4:15 AM 41.0 °F 36.4 °F 23.0 °F 49% 29.90 in 10.0 mi North 6.9 mph - N/A   Overcast
4:35 AM 41.0 °F 37.1 °F 23.0 °F 49% 29.89 in 10.0 mi North 5.8 mph - N/A   Overcast
4:55 AM 41.0 °F 36.4 °F 21.2 °F 45% 29.89 in 10.0 mi North 6.9 mph - N/A   Overcast
5:15 AM 41.0 °F 36.4 °F 21.2 °F 45% 29.89 in 10.0 mi North 6.9 mph - N/A   Overcast
5:35 AM 41.0 °F 37.1 °F 23.0 °F 49% 29.89 in 10.0 mi North 5.8 mph - N/A   Overcast
5:55 AM 41.0 °F 37.1 °F 23.0 °F 49% 29.89 in 10.0 mi North 5.8 mph - N/A   Overcast
6:15 AM 41.0 °F 39.0 °F 23.0 °F 49% 29.89 in 10.0 mi NE 3.5 mph - N/A   Overcast
6:35 AM 42.8 °F 39.3 °F 23.0 °F 46% 29.88 in 10.0 mi East 5.8 mph - N/A   Overcast
6:55 AM 41.0 °F - 23.0 °F 49% 29.89 in 10.0 mi Calm Calm - N/A   Overcast
7:15 AM 41.0 °F 38.0 °F 23.0 °F 49% 29.89 in 10.0 mi North 4.6 mph - N/A   Overcast
7:35 AM 41.0 °F - 23.0 °F 49% 29.89 in 10.0 mi Calm Calm - N/A   Overcast
7:55 AM 39.2 °F 34.2 °F 23.0 °F 52% 29.90 in 7.0 mi North 6.9 mph - N/A   Mostly Cloudy
8:15 AM 39.2 °F 34.2 °F 23.0 °F 52% 29.89 in 10.0 mi North 6.9 mph - N/A   Partly Cloudy
8:35 AM 41.0 °F 38.0 °F 23.0 °F 49% 29.90 in 9.0 mi North 4.6 mph - N/A   Clear
8:55 AM 44.6 °F 43.1 °F 23.0 °F 43% 29.90 in 10.0 mi North 3.5 mph - N/A   Clear
9:15 AM 48.2 °F - 24.8 °F 40% 29.91 in 10.0 mi Calm Calm - N/A   Clear
9:35 AM 48.2 °F - 26.6 °F 43% 29.91 in 10.0 mi East 3.5 mph - N/A   Partly Cloudy
9:55 AM 48.2 °F - 28.4 °F 46% 29.90 in 10.0 mi SE 3.5 mph - N/A   Scattered Clouds
10:15 AM 50.0 °F - 30.2 °F 47% 29.91 in 10.0 mi Calm Calm - N/A   Partly Cloudy
10:35 AM 50.0 °F - 30.2 °F 47% 29.90 in 10.0 mi Calm Calm - N/A   Scattered Clouds
10:55 AM 50.0 °F - 28.4 °F 43% 29.91 in 10.0 mi South 3.5 mph - N/A   Partly Cloudy
11:15 AM 51.8 °F - 32.0 °F 47% 29.90 in 10.0 mi SSW 4.6 mph - N/A   Clear
11:35 AM 53.6 °F - 30.2 °F 41% 29.90 in 10.0 mi South 4.6 mph - N/A   Partly Cloudy
11:55 AM 55.4 °F - 24.8 °F 31% 29.89 in 10.0 mi South 4.6 mph - N/A   Partly Cloudy
12:15 PM 55.4 °F - 23.0 °F 29% 29.88 in 10.0 mi SSW 4.6 mph - N/A   Clear
12:35 PM 59.0 °F - 17.6 °F 20% 29.87 in 10.0 mi West 4.6 mph - N/A   Clear
12:55 PM 59.0 °F - 19.4 °F 22% 29.85 in 10.0 mi WSW 6.9 mph - N/A   Clear
1:15 PM 57.2 °F - 17.6 °F 21% 29.84 in 10.0 mi West 4.6 mph - N/A   Partly Cloudy
1:35 PM 57.2 °F - 19.4 °F 23% 29.83 in 10.0 mi West 4.6 mph - N/A   Partly Cloudy
1:55 PM 57.2 °F - 17.6 °F 21% 29.83 in 10.0 mi WSW 4.6 mph - N/A   Mostly Cloudy
2:15 PM 59.0 °F - 15.8 °F 19% 29.83 in 10.0 mi West 6.9 mph - N/A   Mostly Cloudy
2:35 PM 59.0 °F - 15.8 °F 19% 29.82 in 10.0 mi WSW 8.1 mph - N/A   Mostly Cloudy
2:55 PM 59.0 °F - 14.0 °F 17% 29.82 in 10.0 mi WSW 4.6 mph - N/A   Scattered Clouds
3:15 PM 59.0 °F - 14.0 °F 17% 29.82 in 10.0 mi West 3.5 mph - N/A   Mostly Cloudy
3:35 PM 59.0 °F - 14.0 °F 17% 29.82 in 10.0 mi West 4.6 mph - N/A   Overcast
3:55 PM 59.0 °F - 14.0 °F 17% 29.82 in 10.0 mi West 3.5 mph - N/A   Mostly Cloudy
4:15 PM 59.0 °F - 15.8 °F 19% 29.83 in 10.0 mi WSW 4.6 mph - N/A   Mostly Cloudy
4:35 PM 59.0 °F - 15.8 °F 19% 29.83 in 10.0 mi SW 4.6 mph - N/A   Mostly Cloudy
4:55 PM 59.0 °F - 14.0 °F 17% 29.83 in 10.0 mi SSW 3.5 mph - N/A   Scattered Clouds
5:15 PM 59.0 °F - 17.6 °F 20% 29.83 in 10.0 mi SSW 5.8 mph - N/A   Clear
5:35 PM 57.2 °F - 23.0 °F 27% 29.84 in 8.0 mi South 3.5 mph - N/A   Clear
5:55 PM 55.4 °F - 19.4 °F 25% 29.84 in 10.0 mi WSW 4.6 mph - N/A   Clear
6:15 PM 53.6 °F - 23.0 °F 30% 29.84 in 10.0 mi West 5.8 mph - N/A   Clear
6:35 PM 50.0 °F - 23.0 °F 35% 29.85 in 10.0 mi West 3.5 mph - N/A   Clear
6:55 PM 50.0 °F - 21.2 °F 32% 29.85 in 10.0 mi Calm Calm - N/A   Clear
7:15 PM 50.0 °F - 19.4 °F 30% 29.86 in 10.0 mi WSW 4.6 mph - N/A   Clear
7:35 PM 50.0 °F - 19.4 °F 30% 29.86 in 10.0 mi WNW 3.5 mph - N/A   Clear
7:55 PM 48.2 °F - 19.4 °F 32% 29.87 in 10.0 mi Calm Calm - N/A   Clear
8:15 PM 46.4 °F 44.3 °F 21.2 °F 37% 29.87 in 10.0 mi ENE 4.6 mph - N/A   Clear
8:35 PM 46.4 °F 44.3 °F 19.4 °F 34% 29.88 in 10.0 mi NE 4.6 mph - N/A   Clear
8:55 PM 44.6 °F 43.1 °F 19.4 °F 37% 29.88 in 10.0 mi NE 3.5 mph - N/A   Mostly Cloudy
9:15 PM 44.6 °F 40.7 °F 17.6 °F 34% 29.89 in 10.0 mi NNE 6.9 mph - N/A   Overcast
9:35 PM 46.4 °F 44.3 °F 17.6 °F 32% 29.89 in 10.0 mi NNE 4.6 mph - N/A   Overcast
9:55 PM 46.4 °F 45.2 °F 17.6 °F 32% 29.90 in 10.0 mi NNE 3.5 mph - N/A   Overcast
10:15 PM 44.6 °F - 17.6 °F 34% 29.90 in 10.0 mi Calm Calm - N/A   Mostly Cloudy
10:35 PM 42.8 °F 41.1 °F 19.4 °F 39% 29.90 in 10.0 mi NNW 3.5 mph - N/A   Scattered Clouds
10:55 PM 42.8 °F - 19.4 °F 39% 29.91 in 10.0 mi Calm Calm - N/A   Clear
11:15 PM 44.6 °F 43.1 °F 19.4 °F 37% 29.91 in 10.0 mi WSW 3.5 mph - N/A   Clear
11:35 PM 41.0 °F - 19.4 °F 42% 29.92 in 10.0 mi Calm Calm - N/A   Clear
11:55 PM 41.0 °F 37.1 °F 19.4 °F 42% 29.92 in 10.0 mi NW 5.8 mph - N/A   Clear